Regional Weather Roundup
Issued by NWS Grand Forks, ND

Home | Current Version | Previous Version | Graphics & Text | Print | Product List | Glossary On
Versions: 1 2 3 4 5 6 7 8 9 10 11 12 13 14 15 16 17 18 19 20 21 22 23 24 25 26 27 28 29 30 31 32 33 34 35 36 37 38 39 40 41 42 43 44 45 46 47 48 49 50
000
ASUS43 KFGF 141431
RWRFGF
PRAIRIE TO PINES  WEATHER ROUNDUP
NATIONAL WEATHER SERVICE EASTERN NORTH DAKOTA/GRAND FORKS ND
900 AM CDT SUN SEP 14 2014

 **SATELLITE DATA USED TO AUGMENT SKY COVER AT AUTOMATED STATIONS**
 *****  WEATHER ACROSS EASTERN NORTH DAKOTA  *****

CITY           SKY/WX    TMP DP  RH WIND       PRES   REMARKS
GRAND FORKS    PTSUNNY   50  45  83 NW9       30.06R
GRAND FRKS AFB SUNNY     50  46  85 NW9       30.07R
GRAND FRKS NWS   N/A     50 N/A N/A NW9         N/A
DEVILS LAKE    CLOUDY    48  39  71 NW15      30.09S
FARGO          MOSUNNY   47  41  80 W14       30.09R
WAHPETON ARPT  MOSUNNY   45  39  81 W12       30.13R
$$

 ***** WEATHER ACROSS CENTRAL AND WESTERN NORTH DAKOTA  *****

CITY           SKY/WX    TMP DP  RH WIND       PRES   REMARKS
BISMARCK       SUNNY     43  38  82 W5        30.18R
MINOT          SUNNY     42  36  79 NW12      30.15R
JAMESTOWN      PTSUNNY   46  42  86 NW10      30.13R
MINOT AFB      SUNNY     40  39  95 NW13      30.15S
GARRISON         N/A     39  37  92 NW9       30.16S
WILLISTON      SUNNY     34  31  88 S3        30.19S
DICKINSON      MOSUNNY   37  34  89 CALM      30.15S
HETTINGER      MOSUNNY   42  37  82 N5        30.18S
$$

 *****  OTHER AIRPORT OBSERVATIONS IN OUR AREA  *****

CITY           SKY/WX    TMP DP  RH WIND       PRES   REMARKS
WALHALLA         N/A     48  46  93 NW13G20   30.07R
GRAFTON AIRPOR CLOUDY    48  45  87 NW13G21   30.07R
VALLEY CITY AR CLOUDY    45  45 100 NW15      30.12R
CANDO          CLOUDY    46  41  81 NW9       30.12R
CAVALIER APRT  NOT AVBL
GWINNER        SUNNY     46  41  81 NW12      30.14S
SHEYENNE NWR     N/A     45  41  85 W7        29.95
ROLLA          CLOUDY    45  41  87 NW13      30.13R
 ***** THE ABOVE OBSERVATIONS ARE NON NWS ARE NOT QUALITY
       CONTROLLED AND MAY MIS-REPORT RAIN FOR SNOW...
$$

  *****  WEATHER ACROSS NORTHERN MINNESOTA  *****

CITY           SKY/WX    TMP DP  RH WIND       PRES   REMARKS
FLAG ISLAND    CLOUDY    46  45  93 NW14      29.95R
WARROAD        CLOUDY    48  45  87 NW9       29.99R
ROSEAU         CLOUDY    48  45  87 W10       30.00R
HALLOCK        CLOUDY    48  46  93 NW14G20   30.04R
THF RVR FALLS  CLOUDY    46  45  93 NW10      30.04R
BAUDETTE       CLOUDY    49  45  86 VRB7      29.97R
WASKISH        CLOUDY    46  45  93 W13       30.00R
CROOKSTON      CLOUDY    48  46  93 NW15      30.07R
STEPHEN NDAWN    N/A     48  46  93 NW12        N/A
GREENBUSH NDAW   N/A     48  46  93 NW9         N/A
$$
  *****  WEATHER ACROSS CENTRAL AND WEST MINNESOTA  *****

CITY           SKY/WX    TMP DP  RH WIND       PRES   REMARKS
FOSSTON        CLOUDY    45  41  87 SW9       30.05R
BEMIDJI        CLOUDY    45  41  87 W13       30.03R
PARK RAPIDS    PTSUNNY   45  42  89 W17       30.06R
ELBOW LAKE     FAIR      45  41  85 W12G17    30.13R
WADENA         CLOUDY    45  41  87 W6        30.09R
DETROIT LAKES  PTSUNNY   45  41  87 W12G17    30.09R
MOORHEAD       SUNNY     48  45  87 NW13      30.10S
FERGUS FALLS   MOSUNNY   45  41  87 W10       30.13R
MORRIS MN      SUNNY     50  43  76 W10G16    30.12S
STAPLES        PTSUNNY   46  41  81 W13       30.09R
$$
  *****  WEATHER ELSEWHERE ACROSS MINNESOTA  *****

CITY           SKY/WX    TMP DP  RH WIND       PRES   REMARKS
DULUTH         MOSUNNY   51  43  74 W14       30.01S
INTRNTL FALLS  CLOUDY    47  43  86 W10       29.93S
ELY            MOSUNNY   48  43  81 W7G17     29.96S
CLOQUET        SUNNY     52  43  71 W10       30.02S
WHEATON        SUNNY     46  39  76 W10       30.16R
BRAINERD       SUNNY     48  42  80 W9        30.08R
HIBBING        PTSUNNY   50  41  71 W13       30.00R
ALEXANDRIA     SUNNY     47  40  76 W12       30.12R
SAINT CLOUD    SUNNY     52  43  71 W10       30.11R
MINNEAPOLIS    MOSUNNY   52  44  74 SW12      30.13S
$$

  *****  WEATHER ACROSS SOUTH DAKOTA  *****

CITY           SKY/WX    TMP DP  RH WIND       PRES   REMARKS
SIOUX FALLS    MOSUNNY   50  44  80 CALM      30.18R
BROOKINGS      NOT AVBL
WATERTOWN      MOSUNNY   47  40  76 NW7       30.15R
HURON          MOSUNNY   44  39  82 W5        30.20R
SISSETON         N/A     50  41  71 NW13      30.13S
ABERDEEN       SUNNY     43  39  86 NW8       30.17S
MITCHELL       SUNNY     46  41  82 NW3       30.20S
PIERRE         MOSUNNY   43  40  89 SW3       30.19R
MOBRIDGE       SUNNY     43  40  89 NW3       30.16S
RAPID CITY     CLOUDY    42  36  79 CALM      30.18S
$$

  *****  SOME WEATHER IN NEARBY STATES *****

CITY           SKY/WX    TMP DP  RH WIND       PRES   REMARKS
GLASGOW MT     CLOUDY    38  32  79 E9        30.14R
GREAT FALLS MT CLEAR     36  35  96 W6        30.09R
CHEYENNE WY    SUNNY     52  35  52 W12       30.14S
SCOTTSBLUFF NE CLOUDY    47  46  97 E6        30.11S FOG
OMAHA NE       MOSUNNY   54  47  77 S8        30.22S
DES MOINES IA  PTSUNNY   56  47  71 SW12      30.25S
DAVENPORT IA   PTSUNNY   51  44  77 S6        30.30R
CHICAGO IL     MOSUNNY   52  45  77 S8        30.31S
EAU CLAIRE WI  SUNNY     54  43  66 S10       30.14R
LA CROSSE WI   PTSUNNY   55  42  61 S13       30.20F
$$

  *****  SOME NATIONAL WEATHER *****

CITY           SKY/WX    TMP DP  RH WIND       PRES   REMARKS
LA GUARDIA NY  MOSUNNY   58  46  64 NE14      30.27S
RALEIGH NC     PTSUNNY   66  54  65 NE9       30.28S
ATLANTA GA     CLOUDY    73  70  90 E5        30.20S
NEW ORLEANS LA CLOUDY    75  69  81 NE12      30.12R
OKLAHOMA CITY  PTSUNNY   58  55  90 S8        30.25R
ALBUQUERQUE NM MOSUNNY   62  51  67 N5        30.27R
SALT LAKE CITY PTCLDY    64  40  41 S3        30.02R
LOS ANGELES CA PTCLDY    72  65  78 CALM      29.74R
BOISE ID       CLEAR     54  30  40 SE3       29.97R
SEATTLE WA     CLEAR     54  48  80 CALM      29.91S
$$

*** WEATHER ACROSS MANITOBA...SASKATCHEWAN AND ONTARIO ***
                ***ONTARIO***

CITY           SKY/WX    TMP DP  RH WIND       PRES   REMARKS
GERALDTON      CLOUDY    46  41  81 SE7       30.02F
THUNDER BAY    LGT RAIN  48  46  93 VRB2      29.97F
SIOUX LOOKOUT  DRIZZLE   45  45 100 VRB2      29.87S FOG
TORONTO        PTSUNNY   54  45  71 S5        30.35S
BIG TROUT LK   CLOUDY    41  39  93 NE6       29.99S
PICKLE LAKE    CLOUDY    46  39  76 S3        29.94F
DRYDEN         CLOUDY    45  43  93 N6        29.87R
KENORA         LGT RAIN  46  45  93 N10       29.94R
$$
                *** MANITOBA***

CITY           SKY/WX    TMP DP  RH WIND       PRES   REMARKS
BRANDON        PTSUNNY   41  39  93 NW8       30.13R
DAUPHIN        CLOUDY    45  41  87 W7        30.12R
ISLAND LAKE    CLOUDY    43  41  93 CALM      30.04R
PILOT MOUND      N/A     43  41  93 NW14G20     N/A
THE PAS        PTSUNNY   46  41  81 W6        30.08S
THOMPSON       PTSUNNY  N/A N/A N/A S2          N/A
WINNIPEG       PTSUNNY   48  46  93 NW14      30.05R
LYNN LAKE      CLOUDY    41  37  87 MISG      29.97F
CHURCHILL      PTSUNNY   39  36  87 SW8       29.91F
GILLAM         PTSUNNY   39  36  87 SW7       30.04R
$$
                ***SASKATCHEWAN***

CITY           SKY/WX    TMP DP  RH WIND       PRES   REMARKS
ESTEVAN        MOSUNNY   36  34  93 N3        30.18R
KINDERSLEY     CLOUDY    39  36  87 S2        30.11R
LLOYDMINSTER   PTCLDY    39  36  87 SW9       30.06S
PRINCE ALBERT  PTSUNNY   36  36 100 CALM      30.10R
REGINA         PTSUNNY   34  32  93 SE2       30.16S
YORKTON        CLOUDY    41  39  93 W3        30.14S
N. BATTLEFORD  CLOUDY    43  39  87 S3        30.10S
LA RONGE       MOSUNNY   41  37  87 W6        30.02S
SASKATOON      CLOUDY    37  36  93 S3        30.13R
SWIFT CURRENT  NOT AVBL
$$
NOTE: THESE ARE AUTOMATED STATIONS WITH LIMITED QUALITY CONTROL
      "FAIR" INDICATES FEW OR NO CLOUDS BELOW 12,000 FEET WITH NO
      SIGNIFICANT WEATHER AND/OR OBSTRUCTIONS TO VISIBILITY.
      SKY/WX - SKY CONDITION AND SIGNIFICANT WEATHER.
      TMP - AIR TEMPERATURE.    DP   - DEWPOINT TEMPERATURE.
      RH  - RELATIVE HUMIDITY.  PRES - PRESSURE.
      HX  - HEAT INDEX.         WCI  - WIND CHILL INDEX.
$


USA.gov is the U.S. government's official web portal to all federal, state and local government web resources and services.